{"data":{"norad_id":56376,"epoch":"2026-05-24T09:48:37.179360Z","epoch_age_seconds":126066,"freshness":"FRESH","line1":"1 56376U 23061C   26144.40876365 -.00004788  00000+0 -16451-3 0  9993","line2":"2 56376  43.0041 129.9591 0001123 276.5502  83.5222 15.27596660168331","mean_motion":15.2759666,"eccentricity":0.0001123,"inclination_deg":43.0041,"raan_deg":129.9591,"arg_perigee_deg":276.5502,"mean_anomaly_deg":83.5222,"bstar":-0.00016451,"rev_number":16833,"period_min":94.265720638588,"perigee_km":482.2287048632,"apogee_km":483.76971605607,"semimajor_km":6861.1362104596,"source":"CELESTRAK","updated_at":"2026-05-25T13:38:18.010551Z"}}